Sierra Vista, AZ

3:53 AM MST on May 28, 2018 (GMT -0700)
Sierra Vista Municipal-Libby Army Air Field

Weather History for KFHU - March, 2014

Change the Weather History Date:

Monday, March 17, 2014

  Actual Average Record
Temperature  
Mean Temperature 60 °F -  
Max Temperature 77 °F 69 °F 84 °F (2007)
Min Temperature 44 °F 46 °F 26 °F (2008)
Degree Days  
Heating Degree Days 4    
Growing Degree Days 10 (Base 50)    
Moisture  
Dew Point 8 °F    
Average Humidity 14    
Maximum Humidity 29    
Minimum Humidity 6    
Precipitation  
Precipitation 0.00 in - - ()
Sea Level Pressure  
Sea Level Pressure 29.86 in    
Wind  
Wind Speed 9 mph (WSW)    
Max Wind Speed 24 mph    
Max Gust Speed 33 mph    
Visibility 10 miles    
Events      
Averages and records for this station are not official NWS values.
T = Trace of Precipitation, MM = Missing Value Source: NWS Daily Summary

Daily Weather History Graph

Daily Weather History Graph

Search for Another Location

Airport or City:

Astronomy

Mar. 17, 2014 Rise Set
Actual Time 6:28 AM MST 6:30 PM MST
Civil Twilight 6:04 AM MST 6:55 PM MST
Nautical Twilight 5:36 AM MST 7:23 PM MST
Astronomical Twilight 5:07 AM MST 7:51 PM MST
Moon 7:44 PM MST (3/17) 6:51 AM MST (3/17)
Length of Visible Light 12h 50m
Length of Day
12h 02m
Full, 99% of the Moon is Illuminated
Mar 17
Full
Mar 23
Last Quarter
Mar 30
New
Apr 7
First Quarter
Apr 15
Full

Hourly Weather History & Observations

Time (MST) Temp. Windchill Dew Point Humidity Pressure Visibility Wind Dir Wind Speed Gust Speed Precip Events Conditions
12:55 AM 48.2 °F - 8.6 °F 20% 30.12 in 10.0 mi West 9.2 mph - N/A   Clear
1:55 AM 46.4 °F 43.5 °F 10.4 °F 23% 30.09 in 10.0 mi SW 5.8 mph - N/A   Clear
2:55 AM 44.6 °F 41.4 °F 10.4 °F 25% 30.07 in 10.0 mi SW 5.8 mph - N/A   Clear
3:55 AM 46.4 °F 42.9 °F 12.2 °F 25% 30.05 in 10.0 mi SW 6.9 mph - N/A   Clear
4:55 AM 44.6 °F 40.7 °F 14.0 °F 29% 30.03 in 10.0 mi SSW 6.9 mph - N/A   Clear
5:55 AM 44.6 °F 40.7 °F 14.0 °F 29% 30.02 in 10.0 mi South 6.9 mph - N/A   Clear
6:55 AM 48.2 °F - 12.2 °F 24% 30.01 in 10.0 mi Calm Calm - N/A   Partly Cloudy
7:55 AM 55.4 °F - 8.6 °F 15% 29.99 in 10.0 mi Calm Calm - N/A   Partly Cloudy
8:55 AM 60.8 °F - 8.6 °F 13% 29.99 in 10.0 mi Calm Calm - N/A   Partly Cloudy
9:55 AM 66.2 °F - 8.6 °F 11% 29.95 in 10.0 mi Calm Calm - N/A   Scattered Clouds
10:55 AM 69.8 °F - 6.8 °F 9% 29.92 in 10.0 mi Calm Calm - N/A   Mostly Cloudy
11:55 AM 71.6 °F - 6.8 °F 8% 29.87 in 10.0 mi Calm Calm - N/A   Mostly Cloudy
12:55 PM 75.2 °F - 3.2 °F 6% 29.83 in 10.0 mi West 9.2 mph 19.6 mph N/A   Scattered Clouds
1:55 PM 77.0 °F - 3.2 °F 6% 29.77 in 10.0 mi West 18.4 mph 27.6 mph N/A   Mostly Cloudy
2:55 PM 75.2 °F - 8.6 °F 8% 29.74 in 10.0 mi West 24.2 mph 32.2 mph N/A   Mostly Cloudy
3:55 PM 73.4 °F - 3.2 °F 6% 29.75 in 10.0 mi West 21.9 mph 33.4 mph N/A   Mostly Cloudy
4:55 PM 73.4 °F - 8.6 °F 8% 29.74 in 10.0 mi West 17.3 mph 27.6 mph N/A   Mostly Cloudy
5:55 PM 69.8 °F - 6.8 °F 9% 29.73 in 10.0 mi West 20.7 mph 27.6 mph N/A   Mostly Cloudy
6:55 PM 66.2 °F - 8.6 °F 11% 29.69 in 10.0 mi SW 16.1 mph 24.2 mph N/A   Mostly Cloudy
7:55 PM 66.2 °F - 1.4 °F 8% 29.66 in 10.0 mi West 19.6 mph 26.5 mph N/A   Mostly Cloudy
8:55 PM 62.6 °F - 6.8 °F 11% 29.67 in 10.0 mi WSW 18.4 mph 29.9 mph N/A   Mostly Cloudy
9:55 PM 62.6 °F - 6.8 °F 11% 29.66 in 10.0 mi WSW 15.0 mph 28.8 mph N/A   Overcast
10:55 PM 60.8 °F - 5.0 °F 11% 29.66 in 10.0 mi WSW 17.3 mph 26.5 mph N/A   Mostly Cloudy
11:55 PM 60.8 °F - 6.8 °F 12% 29.67 in 10.0 mi WSW 19.6 mph 26.5 mph N/A   Mostly Cloudy